This is the latest recevied weather packets stored in our database for station/object OE1HTB-13. If no packets are shown the sender has not sent any weather packets the latest 10 day(s).
| Time | Temp. | Humidity | Pressure | Rain* | Wind** | Luminosity | Snow |
|---|---|---|---|---|---|---|---|
| 1777534273 | 9.44° C | 41% | 1030.6 hPa | 0 mm | - | 582 W/m² | - |
| 1777533373 | 8.33° C | 44% | 1030.7 hPa | 0 mm | - | 555 W/m² | - |
| 1777532473 | 6.67° C | 45% | 1030.8 hPa | 0 mm | - | 512 W/m² | - |
| 1777531574 | 5.56° C | 48% | 1030.7 hPa | 0 mm | - | 475 W/m² | - |
| 1777530673 | 5.56° C | 47% | 1030.7 hPa | 0 mm | - | 162 W/m² | - |
| 1777529772 | 5° C | 48% | 1030.5 hPa | 0 mm | - | 374 W/m² | - |
| 1777528873 | 4.44° C | 49% | 1030.5 hPa | 0 mm | - | 58 W/m² | - |
| 1777527972 | 4.44° C | 51% | 1030.3 hPa | 0 mm | - | 47 W/m² | - |
| 1777527072 | 3.89° C | 51% | 1030.3 hPa | 0 mm | - | 158 W/m² | - |
| 1777526172 | 2.78° C | 54% | 1030.3 hPa | 0 mm | - | 69 W/m² | - |
| 1777525272 | 2.22° C | 55% | 1030.2 hPa | 0 mm | - | 163 W/m² | - |
| 1777524372 | 1.67° C | 58% | 1030.2 hPa | 0 mm | - | 69 W/m² | - |
| 1777523472 | 1.11° C | 60% | 1030.1 hPa | 0 mm | - | 60 W/m² | - |
| 1777522572 | 0.56° C | 60% | 1030 hPa | 0 mm | - | 14 W/m² | - |
| 1777521672 | 1.11° C | 59% | 1029.9 hPa | 0 mm | - | 11 W/m² | - |
| 1777520771 | 1.11° C | 59% | 1029.6 hPa | 0 mm | - | 5 W/m² | - |
| 1777519871 | 1.11° C | 58% | 1029.5 hPa | 0 mm | - | 0 W/m² | - |
| 1777518971 | 1.11° C | 58% | 1029.4 hPa | 0 mm | - | 0 W/m² | - |
| 1777518071 | 1.11° C | 58% | 1029.4 hPa | 0 mm | - | 0 W/m² | - |
| 1777517171 | 1.11° C | 58% | 1029.4 hPa | 0 mm | - | 0 W/m² | - |
| 1777516272 | 1.11° C | 59% | 1029.3 hPa | 0 mm | - | 0 W/m² | - |
| 1777515371 | 1.11° C | 58% | 1029.1 hPa | 0 mm | - | 0 W/m² | - |
| 1777514470 | 1.11° C | 59% | 1029.1 hPa | 0 mm | - | 0 W/m² | - |
| 1777513570 | 1.11° C | 62% | 1029 hPa | 0 mm | - | 0 W/m² | - |
| 1777512670 | 1.11° C | 61% | 1029 hPa | 0 mm | - | 0 W/m² | - |
* Rain latest hour (hover to see other rain measurements)
** Current wind speed in m/s (hover to see current wind gust speed)